Location: Sankt Anna
(58.3452°N, 16.7040°E)
Time: 23:05:02
(UTC+02:00)

DX 1 - Pass Details

Date: 26 May 2019
Orbit: 620 x 630 km, 98.4° (Epoch: 20 June)

Event Time Altitude Azimuth Distance (km) Brightness Sun altitude
Rises 01:43:04 0° 107° (ESE) 2,916 ? -9.9°
Reaches altitude 10° 01:45:54 10° 87° (E) 2,015 ? -9.8°
Maximum altitude 01:48:40 17° 48° (NE) 1,618 ? -9.7°
Drops below altitude 10° 01:51:27 10° 8° (N) 2,025 ? -9.6°
Sets 01:54:19 0° 349° (NNW) 2,939 ? -9.5°
